Regional Weather Roundup
Issued by NWS

Home | Current Version | Previous Version | Graphics & Text | Print | Product List | Glossary On
Versions: 1 2 3 4 5 6 7 8 9 10 11 12 13 14 15 16 17 18 19 20 21 22 23 24 25 26 27 28 29 30 31 32 33 34 35 36 37 38 39 40 41 42 43 44 45 46 47 48 49 50
568
ASUS43 KMPX 201710
RWRMN
WEATHER ROUNDUP FOR MINNESOTA
NATIONAL WEATHER SERVICE TWIN CITIES/CHANHASSEN MN
1100 AM CST MON FEB 20 2017


NOTE: "FAIR" INDICATES FEW OR NO CLOUDS BELOW 12,000 FEET WITH NO
SIGNIFICANT WEATHER AND/OR OBSTRUCTIONS TO VISIBILITY. N/A MEANS
CURRENT SKY AND/OR WEATHER CONDITIONS ARE NOT AVAILABLE.

MNZ060>063-068>070-201800-
   Twin Cities Metro

CITY           SKY/WX    TMP DP  RH WIND       PRES   REMARKS
TWIN CITIES    LGT RAIN  50  46  86 SE9       29.78F FOG
ST PAUL        LGT RAIN  50  48  93 SE14      29.80S FOG
CRYSTAL        LGT RAIN  52  45  77 SE10      29.77F
BLAINE         LGT RAIN  52  48  87 SE12      29.78S
LAKEVILLE      RAIN      48  48 100 SE7       29.78S
EDEN PRAIRIE   LGT RAIN  50  47  89 SE12      29.76F FOG
SOUTH ST PAUL  LGT RAIN  50  48  91 SE7       29.78F
LAKE ELMO      RAIN      52  48  87 SE8G16    29.81F
$$
MNZ001>005-007-008-013>017-022>024-027-028-201800-
   Northwest Minnesota

CITY           SKY/WX    TMP DP  RH WIND       PRES   REMARKS
BEMIDJI        LGT RAIN  40  39  95 SE8       29.66F
HALLOCK        FOG       36  36 100 CALM      29.60S VSB<1/4
ROSEAU         DRIZZLE   39  36  87 SE9       29.61F
WARROAD        DRIZZLE   41  37  87 SE7       29.62F
THIEF RVR FALL LGT RAIN  42  42 100 SE14      29.62F VSB 1/2
CROOKSTON      LGT RAIN  43  43 100 S17       29.59F VSB 1/4
FOSSTON        RAIN      43  43 100 S7        29.64F
DETROIT LAKES  LGT RAIN  46  46 100 E5        29.62F VSB 1/4
MOORHEAD       RAIN      48  46  93 SE8       29.61F
PARK RAPIDS    LGT RAIN  46  43  89 SE13      29.66F FOG
MAHNOMEN       RAIN      47  47  98 S13G20    29.63F
$$
MNZ006-009>011-018-025>026-201800-
   North Central Minnesota

CITY           SKY/WX    TMP DP  RH WIND       PRES   REMARKS
BAUDETTE       CLOUDY    41  38  89 SE9       29.66S
FLAG ISLAND    CLOUDY    39  37  93 SE9       29.63F
INTL FALLS     CLOUDY    44  36  73 SE10      29.70F
WASKISH        CLOUDY    46  43  87 S9        29.68S
BIG FORK       CLOUDY    46  39  76 SE9       29.71F
LONGVILLE      RAIN      45  41  87 CALM      29.71F
GRAND RAPIDS   CLOUDY    46  39  76 SE13      29.75S
CRANE LAKE     CLOUDY    46  37  71 CALM      29.77F
ORR            CLOUDY    46  36  66 SE10      29.73F
COOK           CLOUDY    46  37  71 SE12      29.77S
WALKER         DRIZZLE   42  39  92 E6        29.69F
$$
MNZ012-019>021-037-201800-
   Northeast Minnesota

CITY           SKY/WX    TMP DP  RH WIND       PRES   REMARKS
DULUTH         CLOUDY    42  36  79 SE14      29.82F
ELY            CLOUDY    43  36  75 SE10G16   29.81F
HIBBING        CLOUDY    42  37  82 SE12      29.78F
EVELETH        CLOUDY    46  34  64 SE13G18   29.81S
DULUTH HARBOR  CLOUDY    36  34  93 E10       29.87F
TWO HARBORS    CLOUDY    45  36  70 E7        29.86R
SILVER BAY     CLOUDY    41  34  75 E9        29.87F
GRAND MARAIS     N/A     42  32  67 NE13      29.95F
G MARAIS ARPRT CLOUDY    37  27  65 E7        29.93F
$$
MNZ029>031-032-039>041-046>048-054>057-064-201800-
   West Central Minnesota

CITY           SKY/WX    TMP DP  RH WIND       PRES   REMARKS
FERGUS FALLS   DRIZZLE   48  48 100 SE14      29.64F
WHEATON        CLOUDY    50  48  93 SE10      29.62S FOG
MORRIS         PTSUNNY   52  52 100 SE13      29.61F FOG
ALEXANDRIA     LGT RAIN  50  50 100 SE13      29.67F FOG
ELBOW LAKE     RAIN      48  48 100 E10       29.62F
WADENA         RAIN      45  45 100 SE8       29.67F
GLENWOOD       LGT RAIN  52  50  93 SE9       29.67S
APPLETON       CLOUDY    55  54  94 SE7       29.63F
BENSON         CLOUDY    52  46  82 S10       29.66F HAZE
ORTONVILLE     CLOUDY    52  50  93 SE9       29.62S FOG
WILLMAR        LGT RAIN  52  52 100 SE9       29.69F
$$
MNZ033>034-036-042>043-049>051-058-059-201800-
   Central Minnesota

CITY           SKY/WX    TMP DP  RH WIND       PRES   REMARKS
ST CLOUD       RAIN      48  47  96 SE9       29.73F FOG
SAUK CENTRE    DRIZZLE   49  47  95 SE9       29.68F
PAYNESVILLE    LGT RAIN  49  49 100 SE8       29.70F
AITKIN         CLOUDY    52  39  62 SE9       29.72F
PINE RIVER     RAIN      45  43  93 SE3       29.75S
BRAINERD       LGT RAIN  47  45  93 SE7       29.71F FOG
STAPLES        RAIN      46  45  93 SE7       29.69F
LONG PRAIRIE   RAIN      46  45  93 E8        29.69F
LITTLE FALLS   RAIN      46  45  93 SE10      29.72F
LITCHFIELD     DRIZZLE   52  52 100 SE8       29.71F
BUFFALO        RAIN      50  47  90 SE5       29.76F
MAPLE LAKE     LGT RAIN  49  48  96 SE6       29.75F
HUTCHINSON     DRIZZLE   52  51  97 SE13      29.72F
$$
MNZ037-044-045-052-053-201800-
   East Central Minnesota

CITY           SKY/WX    TMP DP  RH WIND       PRES   REMARKS
PRINCETON      LGT RAIN  52  48  87 SE6       29.76S
MORA           CLOUDY    48  43  81 SE8G16    29.78F
CAMBRIDGE      RAIN      52  43  71 SE8       29.75F
RUSH CITY      CLOUDY    52  45  76 SE13G20   29.79F
MOOSE LAKE     CLOUDY    39  34  81 NE5       29.77F
HINCKLEY       CLOUDY    52  45  76 SE10G17   29.78F
CLOQUET        CLOUDY    41  34  75 E7        29.81F
MCGREGOR       CLOUDY    45  39  81 SE12      29.75F
$$
MNZ071>073-080-081-089-090-097-098-201800-
   Southwest Minnesota

CITY           SKY/WX    TMP DP  RH WIND       PRES   REMARKS
MONTEVIDEO     CLOUDY    52  52 100 S8        29.66F FOG
GRANITE FALLS  CLOUDY    53  52  96 SE10      29.67F FOG
CANBY          CLOUDY    58  55  89 S12G22    29.65R FOG
MARSHALL       CLOUDY    55  54  96 S13       29.65F
REDWOOD FALLS  LGT RAIN  54  51  90 S13       29.68F FOG
OLIVIA         DRIZZLE   52  50  93 SE9       29.68F
PIPESTONE      FOG       54  50  87 S13       29.67R VSB 1/4
WINDOM         CLOUDY    54  52  94 SE15      29.70S FOG
WORTHINGTON    FOG       51  51 100 S13       29.69F VSB 1/4
JACKSON        FOG       52  50  93 S14G22    29.72S VSB 1
TRACY          CLOUDY    54  53  97 S10       29.67F
SLAYTON        DRIZZLE   52  52  99 S14       29.68F
$$
MNZ065>067-074>077-082>085-091>093-201800-
   South Central Minnesota

CITY           SKY/WX    TMP DP  RH WIND       PRES   REMARKS
MANKATO        RAIN      50  49  96 SE15      29.74F FOG
NEW ULM        CLOUDY    52  50  93 S9        29.71F FOG
ST JAMES       CLOUDY    52  52 100 SE16      29.73S
FAIRMONT       LGT RAIN  51  51 100 S16       29.74S FOG
GLENCOE        RAIN      51  51 100 SE12      29.73F
FARIBAULT      RAIN      50  48  93 SE9       29.78R
OWATONNA       DRIZZLE   52  48  87 SE17      29.77S
WASECA         LGT RAIN  50  46  87 SE16      29.77F
ALBERT LEA     DRIZZLE   50  48  93 S15       29.78F
$$
MNZ078>079-086>088-094>096-201800-
   Southeast Minnesota

CITY           SKY/WX    TMP DP  RH WIND       PRES   REMARKS
ROCHESTER      LGT RAIN  48  48 100 SE20      29.82F FOG
RED WING       LGT RAIN  52  48  87 SE10      29.82F
STANTON        LGT RAIN  52  49  89 SE13G21   29.75F
DODGE CENTER   LGT RAIN  48  46  93 SE20      29.80F
WINONA         CLOUDY    50  45  81 SE9       29.90R
AUSTIN         LGT RAIN  48  46  93 S14G20    29.80S
PRESTON        RAIN      47  45  95 SE13      29.86F VSB 1
$$
ABBREVIATIONS USED IN REMARKS
   TC - TEMPERATURES IN CELSIUS
  WCI - WIND CHILL INDEX
   HX - HEAT INDEX
  VSB - VISIBILITY
$$




USA.gov is the U.S. government's official web portal to all federal, state and local government web resources and services.